Cloud_Cover
100 100 100 100 100 100 100 100 100 100 100 100 100 100 100 100 100 100 100 100 94 100 94 100 100 94 100 100 100 100 100 50 13 5 5 3 53 99 2 0 0 0 0 0 0
100 100 100 100 100 100 100 100 100 100 100 100 100 100 100 100 72 99 100 100 100 100 100 100 100 99 100 100 100 100 100 74 92 5 14 71 99 42 4 0 0 0 2 0 0
20 100 100 100 100 100 100 100 100 100 100 100 100 100 100 100 100 98 100 100 100 100 100 100 100 100 87 93 100 100 100 18 44 83 55 99 93 37 5 0 0 0 0 0 12
8 16 10 100 100 100 100 100 100 100 100 100 100 100 100 100 100 100 100 100 100 100 100 100 100 100 94 84 100 88 76 57 100 100 100 96 30 59 4 0 0 0 0 0 20
15 7 11 13 69 100 100 100 100 100 100 100 100 100 100 97 99 100 100 100 100 100 100 100 100 91 100 77 81 96 100 100 88 100 100 66 12 6 5 0 0 0 0 0 0
9 25 13 34 15 100 100 100 100 100 100 100 100 100 100 100 100 100 100 100 100 100 100 100 100 100 94 100 100 59 69 81 97 100 78 86 8 5 2 0 0 0 0 0 0
1 12 20 18 18 36 100 100 100 100 100 100 100 100 100 100 100 100 100 100 100 100 100 100 100 100 100 100 86 94 94 100 85 59 75 61 9 6 2 0 0 0 0 0 0
0 16 36 18 1 1 83 100 100 100 100 100 100 100 100 100 100 100 100 100 100 100 100 100 100 100 99 95 47 43 66 45 78 63 97 42 48 5 0 0 0 0 0 0 0
0 6 19 24 0 0 96 100 100 100 100 100 100 100 100 100 100 100 100 100 100 100 100 100 100 100 100 98 84 91 42 94 100 100 74 5 35 0 0 0 0 0 0 0 0
0 0 20 0 0 1 43 100 100 100 100 100 100 100 100 100 100 100 100 100 100 100 100 100 100 100 93 100 97 83 21 93 91 18 5 8 5 0 2 0 0 0 0 0 0
5 0 0 0 0 24 100 100 100 100 100 100 100 100 100 100 100 100 100 100 100 100 100 100 100 100 100 100 87 97 76 67 5 15 100 50 8 5 5 0 0 0 0 0 0
6 5 3 0 0 4 93 100 100 100 100 100 100 100 100 100 100 100 100 100 100 100 100 100 100 100 100 100 82 100 83 87 25 15 51 60 22 5 5 0 0 5 0 0 0
71 5 66 5 0 3 82 100 100 100 100 100 100 100 100 100 100 100 100 100 100 100 100 100 100 100 100 100 100 100 100 82 90 97 100 98 85 5 4 5 3 0 0 0 0
60 74 83 100 2 4 82 100 100 100 100 100 100 100 100 100 100 100 100 100 100 100 100 100 100 100 100 100 96 99 24 45 91 89 100 100 100 83 5 3 4 5 4 4 4
97 100 100 100 68 6 80 100 100 100 100 100 100 100 100 100 100 100 100 100 100 100 100 100 100 100 100 100 100 77 81 93 59 21 92 100 37 100 99 74 5 5 5 5 5
97 100 100 100 100 98 100 100 100 100 100 100 100 100 100 100 100 100 100 100 100 100 100 100 100 100 100 100 100 68 95 57 24 8 78 99 6 100 100 100 100 11 5 5 5
100 100 100 100 100 100 100 100 100 100 100 100 100 100 100 100 100 100 100 100 100 100 100 100 100 100 100 100 50 48 33 6 5 32 74 92 25 100 100 100 100 100 88 14 5
100 100 100 86 100 100 100 100 100 100 100 100 100 100 100 100 100 100 100 100 100 100 100 100 100 100 100 99 64 84 38 9 5 5 8 20 91 100 100 100 100 100 100 100 89
100 100 100 100 100 100 100 100 100 100 100 100 100 100 100 100 100 100 100 100 100 100 100 100 100 100 100 100 100 100 100 69 6 5 5 6 85 100 100 100 100 100 100 99 96
100 100 100 100 100 100 100 100 100 100 100 100 100 100 100 100 100 100 100 100 100 100 100 100 100 100 100 100 100 100 100 100 58 4 5 19 58 78 79 95 88 16 5 5 9
100 100 100 100 100 100 100 100 100 100 100 100 100 100 100 100 100 100 100 100 100 100 100 100 100 100 100 100 100 100 100 100 75 5 5 62 100 100 99 95 74 90 40 9 44
100 100 100 100 100 100 100 100 100 100 100 100 100 100 100 100 100 100 100 100 100 100 98 97 56 69 100 100 100 100 100 100 74 45 59 28 79 83 20 5 11 32 9 42 87
100 100 100 100 100 100 100 100 100 100 100 100 100 100 100 100 100 100 100 100 100 100 100 100 78 100 99 100 100 100 100 100 100 100 84 67 75 25 52 32 88 91 63 98 90
100 100 100 100 100 100 100 100 100 100 100 100 100 100 100 100 100 100 100 100 100 100 100 94 99 100 96 74 100 100 100 100 100 83 85 66 53 5 5 9 6 24 32 16 43
100 100 100 100 100 100 100 100 100 100 100 100 100 100 100 100 100 100 100 100 100 99 89 66 100 100 100 100 100 100 100 100 100 99 22 94 89 52 5 5 5 29 77 100 100
100 100 100 100 100 100 100 100 100 100 100 100 100 100 100 100 100 100 100 97 94 100 100 100 100 100 100 100 100 100 100 100 100 100 80 52 98 8 57 98 100 100 100 96 85
100 100 100 100 100 100 100 100 100 100 100 100 100 100 100 100 100 100 100 94 91 100 100 100 100 100 100 100 100 100 100 100 100 98 80 36 15 100 96 100 100 79 81 60 5